Regional Weather Roundup
Issued by NWS

Home | Current Version | Previous Version | Graphics & Text | Print | Product List | Glossary On
Versions: 1 2 3 4 5 6 7 8 9 10 11 12 13 14 15 16 17 18 19 20 21 22 23 24 25 26 27 28 29 30 31 32 33 34 35 36 37 38 39 40 41 42 43 44 45 46 47 48 49 50
000
ASUS43 KLOT 201609
RWRIL

ILLINOIS REGIONAL WEATHER ROUNDUP
NATIONAL WEATHER SERVICE CHICAGO/ROMEOVILLE IL
1100 AM CDT THU JUL 20 2017

NOTE: "FAIR" INDICATES FEW OR NO CLOUDS BELOW 12,000 FEET WITH NO
SIGNIFICANT WEATHER AND/OR OBSTRUCTIONS TO VISIBILITY.

* THESE STATIONS ARE NOT UNDER NWS QUALITY CONTROL. THEY ALSO MAY NOT
  REPORT WEATHER SUCH AS PRECIPITATION OR FOG.

ILZ001-002-007-009-015-016-024-201700-
NORTHWEST ILLINOIS

CITY           SKY/WX    TMP DP  RH WIND       PRES   REMARKS
MOLINE         CLOUDY    79  73  82 S6        29.99F HX  82
STERLING*      CLOUDY    78  73  84 VRB5      30.00S HX  81
SAVANNA*       CLOUDY    80  75  83 S10       29.99S HX  85
$$

ILZ003-004-008-010-011-017-018-201700-
NORTH CENTRAL ILLINOIS

CITY           SKY/WX    TMP DP  RH WIND       PRES   REMARKS
ROCKFORD       CLOUDY    81  72  74 SW14      29.99F HX  85
FREEPORT*      PTSUNNY   80  73  79 S13       30.00F HX  83
ROCHELLE*      MOSUNNY   78  72  81 S9        30.00F HX  81
DE KALB*       MOSUNNY   80  74  82 SW13      30.00F HX  85
PERU*          PTSUNNY   77  72  83 S14       30.01F
$$

ILZ005-006-012>014-019>023-201700-
NORTHEAST ILLINOIS

CITY           SKY/WX    TMP DP  RH WIND       PRES   REMARKS
CHICAGO-OHARE  CLOUDY    78  70  76 SW15G21   29.96F HX  80
CHICAGO-MIDWAY CLOUDY    78  71  79 SW15G22   29.97F HX  80
AURORA         MOSUNNY   80  74  81 SW12      29.99F HX  85
LANSING*       CLOUDY    73  69  87 S14G21    29.99F
JOLIET*        CLOUDY    79  74  85 SW5       29.99F HX  83
WAUKEGAN       MOSUNNY   78  72  81 SW15G21   29.95F HX  80
DUPAGE AIRPORT PTSUNNY   79  73  82 SW15G22   29.97F HX  82
WHEELING       CLOUDY    77  72  84 SW10      29.97F
MORRIS*        PTSUNNY   81  74  79 SW13      29.98F HX  87
ROMEOVILLE*    MOSUNNY   77  70  78 SW10      30.00S
NORTHERLY ISL    N/A     75  68  78 SW13        N/A
$$

LMZ740>746-201700-
SOUTHERN LAKE MICHIGAN

STATION/POSITION SKY/WX   TEMP    WIND        PRES    VSBY  WAVE
                          AIR SEA DIR/SP/G                  HT/PER
                          (F)     (DEG/KT/KT) (MB)    (MI)  (FT/S)
SOUTHERN BUOY              70 69  210/ 14/ 17 1014.2          2/ 3
WILMETTE HARBOR            74 71  230/ 12/ 16   N/A           3/ 2
HARRISON CRIB              74     200/ 17/ 20   N/A
BURNHAM HARBOR             75                   N/A
CALUMET HARBOR             72     200/ 11/ 17 1014.5F
BURNS HARBOR               74     190/ 17/ 25 1015.2F
MICHIGAN CITY              74     200/ 20/ 23   N/A
MICHIGAN CITY 6N           74 74  210/ 17/ 23   N/A           3/ 3
ST. JOSEPH                 74 73  220/ 12/ 16 1014.7          2/ 3
$$

ILZ025>027-034>036-040-047-049-050-058-095>099-201700-
WEST-CENTRAL ILLINOIS

CITY           SKY/WX    TMP DP  RH WIND       PRES   REMARKS
QUINCY         SUNNY     92  75  57 SW12      30.03F HX 103
GALESBURG*     CLOUDY    83  75  77 S6        30.03R HX  89
MACOMB*        CLOUDY    88  75  66 W8        30.04R HX  97
JACKSONVILLE*  MOSUNNY   89  75  64 SW12      30.05S HX  99
PITTSFIELD*    SUNNY     90  76  63 SW9G17    30.06S HX 100
$$

ILZ028>032-037-038-041>044-048-051>054-059>061-201700-
CENTRAL ILLINOIS

CITY           SKY/WX    TMP DP  RH WIND       PRES   REMARKS
PONTIAC        CLOUDY    81  77  88 S12       30.03F HX  88
BLOOMINGTON    CLOUDY    74  72  93 S10       30.06F
DECATUR        CLOUDY    82  76  81 SW5       30.08F HX  89
PEORIA         PTSUNNY   80  75  84 S13       30.02F HX  85
LACON*         CLOUDY    79  75  87 S7        30.01F HX  82
LINCOLN*       CLOUDY    83  77  80 SE5       30.06F HX  92
SPRINGFIELD    PTSUNNY   89  78  70 S5        30.06S HX 103
TAYLORVILLE    CLOUDY    85  74  68 CALM      30.09R HX  92
$$

ILZ033-039-045-046-055>057-062-063-201700-
EAST-CENTRAL ILLINOIS

CITY           SKY/WX    TMP DP  RH WIND       PRES   REMARKS
CHAMPAIGN      CLOUDY    81  74  79 S3        30.07F HX  86
RANTOUL*       CLOUDY    80  76  90 S8        30.06F HX  84
MATTOON        CLOUDY    85  75  72 W7        30.09F HX  93
PARIS*         LGT RAIN  79  76  91 CALM      30.10F HX  84
$$

ILZ079-100>102-201700-
SOUTHWEST ILLINOIS

CITY           SKY/WX    TMP DP  RH WIND       PRES   REMARKS
ALTON          MOSUNNY   90  77  66 W8        30.09S HX 102
BELLEVILLE     SUNNY     91  74  57 W6        30.09F HX 100
CAHOKIA*       SUNNY     93  72  50 SW8       30.07F HX 101
SPARTA*        MOSUNNY   89  73  60 SW7       30.10F HX  97
$$

ILZ064>066-069>071-074>076-080>082-084>086-088>090-092>094-201700-
SOUTH-CENTRAL ILLINOIS

CITY           SKY/WX    TMP DP  RH WIND       PRES   REMARKS
CARBONDALE     CLOUDY    88  77  69 SW7       30.11S HX 100
CAIRO*         MOSUNNY   88  77  69 W6        30.12F HX 100
EFFINGHAM*     CLOUDY    89  74  60 W7        30.12S HX  98
MARION         MOSUNNY   90  75  62 SW9       30.12S HX 100
MT. VERNON     PTSUNNY   90  74  59 NW6       30.11R HX  99
CENTRALIA*     CLOUDY    90  75  61 W5        30.10R HX 100
SALEM*         PTSUNNY   90  74  58 W6        30.11R HX  99
METROPOLIS*    CLOUDY    89  77  68 W5        30.12F HX 100
$$

ILZ067-068-072-073-078-083-087-091-201700-
SOUTHEAST ILLINOIS

CITY           SKY/WX    TMP DP  RH WIND       PRES   REMARKS
LAWRENCEVILLE  CLOUDY    88  74  63 W6        30.12R HX  96
FLORA*         CLOUDY    91  74  57 NW5       30.12R HX 100
FAIRFIELD*     PTSUNNY   89  76  65 W3        30.10R HX  99
HARRISBURG*    CLOUDY    90  76  64 W8        30.11S HX 102
ROBINSON*      CLOUDY    85  76  74 SW6       30.12S HX  94
CARMI*         PTSUNNY   87  78  74 SW5       30.10S HX 100
$$

ABBREVIATIONS USED IN REMARKS
   TC - TEMPERATURE IN CELSIUS
  WCI - WIND CHILL INDEX
   HX - HEAT INDEX
  VSB - VISIBILITY
$$





USA.gov is the U.S. government's official web portal to all federal, state and local government web resources and services.